Tracking 19490 objects as of 23-Jan-2019
HD Live streaming from Space Station
objects crossing your sky now

COSMOS 1763

Track COSMOS 1763 now!
10-day predictions
COSMOS 1763 is classified as:


NORAD ID: 16860
Int'l Code: 1986-052A
Perigee: 750.3 km
Apogee: 793.2 km
Inclination: 74.0 °
Period: 100.1 minutes
Semi major axis: 7142 km
RCS: 2.3788 m2 (large)
Launch date: July 16, 1986
Source: Commonwealth of Independent States (former USSR) (CIS)
Launch site: PLESETSK MISSILE AND SPACE COMPLEX (PKMTR)
aabbcc
Your satellite tracking list
Your tracking list is empty




NASA's NSSDC Master Catalog

Two Line Element Set (TLE):
1 16860U 86052A   19022.84886743 +.00000002 +00000-0 +92368-5 0  9999
2 16860 074.0336 148.6091 0030036 095.7961 264.6618 14.38165752705247
Source of the keplerian elements: AFSPC